Retour au catalogue

EQUATOR S

ActifScienceHEO
NORAD 25068·PAYLOAD·🇩🇪 Germany

Lancé Dec 2, 1997 depuis Guiana Space Centre

Loading…

Prochains Passages (prochaines 24 heures)

TLE

FraisSource: Space-Track

Époque: Sep 14, 2026, 06:07 UTC

1 25068U 97075B   26257.25490945 -.00000037  00000-0  81993-3 0  9993
2 25068   2.7218 233.5698 8288562  22.3717 358.6596  1.07780407113427

Suivez EQUATOR S en temps réel avec AllMySat

Download on the App Store